[Iaude] MPEC L105: 2024 LS2 [a=1.69,e=0.42,i=22.0,H=21.6]
    mpec at cfa.harvard.edu 
    mpec at cfa.harvard.edu
       
    Mon Jun 10 11:31:36 EDT 2024
    
    
  
M.P.E.C. 2024-L105                                Issued 2024 June 10, 15:30 UT
     The Minor Planet Electronic Circulars contain information on unusual
         minor planets, routine data on comets and natural satellites,
         and occasional editorial announcements.  They are published
    on behalf of Division F of the International Astronomical Union by the
          Minor Planet Center, Smithsonian Astrophysical Observatory,
                          Cambridge, MA 02138, U.S.A.
			  
             Prepared using the Tamkin Foundation Computer Network
                              MPC at CFA.HARVARD.EDU
            URL https://www.minorplanetcenter.net/    ISSN 1523-6714
                                    2024 LS2                                    
Observations:
     K24L02S*KC2024 06 08.17602 19 02 42.66 -37 47 22.3          19.0 rqEL105X74
     K24L02S KC2024 06 08.18123 19 02 42.90 -37 46 55.7          19.0 rqEL105X74
     K24L02S KC2024 06 08.18626 19 02 43.19 -37 46 30.6          19.3 rqEL105X74
     K24L02S KC2024 06 08.37145 19 02 53.52 -37 30 36.6          18.3 rqEL105X74
     K24L02S KC2024 06 08.37463 19 02 53.56 -37 30 20.2          19.1 rqEL105X74
     K24L02S KC2024 06 08.37758 19 02 53.80 -37 30 05.4          19.6 rqEL105X74
     K24L02S KC2024 06 08.41329419 03 01.985-37 26 42.36         19.4 GVEL105474
     K24L02S KC2024 06 08.41569619 03 02.138-37 26 30.52         19.5 GVEL105474
     K24L02S KC2024 06 08.41809619 03 02.323-37 26 18.35         19.8 GVEL105474
     K24L02S KC2024 06 08.42049819 03 02.474-37 26 06.32         19.9 GVEL105474
     K24L02S KC2024 06 08.50504119 03 07.930-37 18 56.74         19.4 GVEL105474
     K24L02S KC2024 06 08.50686319 03 08.014-37 18 47.45         19.4 GVEL105474
     K24L02S KC2024 06 08.50868519 03 08.136-37 18 38.09         19.4 GVEL105474
     K24L02S KC2024 06 08.51050719 03 08.251-37 18 28.69         19.4 GVEL105474
     K24L02S KC2024 06 08.55215 19 03 11.76 -37 14 57.6          19.3 VqEL105E23
     K24L02S KC2024 06 08.56697 19 03 12.63 -37 13 41.9          19.3 VqEL105E23
     K24L02S KC2024 06 08.57993 19 03 13.43 -37 12 35.3          19.9 VqEL105E23
     K24L02S KC2024 06 10.16631 19 05 09.96 -34 44 47.6          18.9 rqEL105X74
     K24L02S KC2024 06 10.17242 19 05 10.21 -34 44 10.9          19.4 rqEL105X74
     K24L02S KC2024 06 10.17830 19 05 10.51 -34 43 36.3          19.5 rqEL105X74
     K24L02S KC2024 06 10.18615 19 05 10.89 -34 42 49.3          18.9 rqEL105X74
     K24L02S KC2024 06 10.19237 19 05 11.20 -34 42 12.2          19.6 rqEL105X74
     K24L02S KC2024 06 10.19823 19 05 11.48 -34 41 36.9          18.7 rqEL105X74
     K24L02S mC2024 06 10.34036819 05 22.319-34 27 51.73         19.43GVEL105I52
     K24L02S mC2024 06 10.34114019 05 22.358-34 27 47.41         19.15GVEL105I52
     K24L02S mC2024 06 10.34677919 05 22.664-34 27 13.10         19.16GVEL105I52
Observer details:
474 Mount John Observatory, Lake Tekapo.  Observers A. C. Gilmore, P. M.
    Kilmartin.  Measurer P. M. Kilmartin.  1.0-m f/7.7 Reflector + CCD.
E23 Arcadia.  Observer A. Hidas.  0.35-m f/1.9 reflector + CCD.
I52 Steward Observatory, Mt. Lemmon Station.  Observer J. B. Fazekas.
    Measurers T. Beuden, V. F. Carvajal, D. Fay, J. B. Fazekas, D. C. Fuls, A.
    R. Gibbs, A. D. Grauer, H. Groeller, J. K. Hogan, R. A. Kowalski, S. M.
    Larson, G. J. Leonard, D. Rankin, R. L. Seaman, F. C. Shelly, K. W.
    Wierzchos.  1.0-m prime focus + CCD.
X74 Observatorio Campo dos Amarais.  Observer L. S. Amaral.  0.31-m f/3.4
    Newtonian + CCD.
Orbital elements:
2024 LS2                                                 Earth MOID = 0.1060 AU
Epoch 2024 Mar. 31.0 TT = JDT 2460400.5                 Bell                    
M 301.23684              (2000.0)            P               Q                  
n   0.44751265     Peri.   58.33239     +0.76618665     +0.52259766             
a   1.6927748      Node   267.56154     -0.63876259     +0.68300017             
e   0.4152416      Incl.   21.98129     +0.07028778     +0.51029645             
P   2.20           H   21.64          G   0.15           U   9                  
Residuals in seconds of arc
240608 X74  0.3+  0.2-    240608 474  0.1-  0.3-    240610 X74  0.1-  0.2+
240608 X74  0.1-  0.3+    240608 474  0.2+  0.2-    240610 X74  0.1-  0.1-
240608 X74  0.1+  0.1+    240608 474  0.1-  0.2-    240610 X74  0.3-  0.1+
240608 X74  0.9+  0.5+    240608 474  0.0   0.2-    240610 X74  0.3-  0.0
240608 X74  0.9-  0.2+    240608 474  0.1+  0.2-    240610 X74  0.5-  0.3+
240608 X74  0.3-  0.5-    240608 E23  0.2-  0.8+    240610 I52  0.0   0.1+
240608 474  0.0   0.1-    240608 E23  0.2-  0.4+    240610 I52  0.0   0.2-
240608 474  0.2-  0.3-    240608 E23  0.4+  0.2+    240610 I52  0.1+  0.0
240608 474  0.1+  0.3-    240610 X74  0.6+  0.2-
Ephemeris:
2024 LS2                 a,e,i = 1.69, 0.42, 22                  q = 0.9899
Date    TT    R. A. (2000) Decl.     Delta      r    Elong.  Phase     V
2024 05 11    18 17 53.3 -53 05 13   0.4647  1.3550   129.7    35.0    22.1
...
2024 05 26    18 44 06.7 -49 02 39   0.3133  1.2659   138.9    31.7    21.0
...
2024 06 03    18 55 55.2 -43 40 34   0.2403  1.2200   145.5    28.1    20.2
...
2024 06 09    19 03 43.0 -36 35 25   0.1908  1.1867   151.8    23.8    19.5
2024 06 10    19 04 56.6 -35 01 10   0.1832  1.1813   152.9    23.0    19.4
2024 06 11    19 06 09.1 -33 18 31   0.1757  1.1759   154.1    22.2    19.3
...
2024 06 17    19 13 09.3 -19 20 36   0.1371  1.1446   158.5    19.0    18.6
...
2024 06 25    19 22 26.2 +11 05 29   0.1108  1.1057   141.9    34.6    18.5
...
2024 07 10    19 44 31.6 +61 54 01   0.1597  1.0446    95.7    75.6    20.4
M. P. C. Staff               (C) Copyright 2024 MPC           M.P.E.C. 2024-L105
    
    
More information about the Iaude
mailing list